Flag for Germany Weather past 2 weeks in Bonn, North Rhine-Westphalia, Germany

Now
58 °F

Passing clouds.


Feels Like: 56 °F
Forecast: 52 / 69 °F
Wind: 9 mph from East

Location: Bonn-Hangelar

Current Time: Oct 2, 2014 at 3:13:15 AM

Latest Report: Oct 2, 2014 at 2:00 AM


Visibility: 18 mi

Pressure: 30.37 "Hg

Humidity: 86%

Dew point: 53 °F

Location of BonnLocation

Historic Weather in Bonn — Graph

°F

Bonn temperature yesterday

Maximum temperature yesterday: 68 °F (at 4:00 PM)
Minimum temperature yesterday: 56 °F (at 8:00 AM)
Average temperature yesterday: 61 °F

Past Weeks' High & Low Weather Summary

 TemperatureHumidityPressure
High75 °F (Sep 17, 3:00 PM)98% (Sep 21, 4:00 AM)30.37 "Hg (Sep 21, 4:00 AM)
Low44 °F (Sep 23, 5:00 AM)52% (Sep 17, 2:00 PM)29.80 "Hg (Sep 18, 6:00 PM)
Average60 °F81%30.11 "Hg
* Reported Sep 17 2:00 AM — Oct 2 2:00 AM, Bonn, Weather by CustomWeather, © 2014

Note: Actual official high and low records may vary slightly from our data, if they occured in-between our weather recording intervals... More about our weather records

Advertising

Bonn weather history for previous 24 hours

 ConditionsComfort  
Time TempWeatherWind HumidityBarometerVisibility
2:00 AM
Oct 2
58 °FPassing clouds.8 mph86%30.37 "Hg2 mi
1:00 AM57 °FPassing clouds.3 mph87%30.37 "Hg5 mi
12:00 AM58 °FPassing clouds.3 mph84%30.37 "Hg6 mi
11:00 PM
Oct 1
57 °FOvercast.3 mph86%30.37 "Hg7 mi
10:00 PM59 °FClear.2 mph80%30.36 "Hg9 mi
9:00 PM59 °FPassing clouds.2 mph79%30.35 "Hg11 mi
8:00 PM60 °FPassing clouds.2 mph79%30.34 "Hg11 mi
7:00 PM64 °FPassing clouds.2 mph71%30.32 "Hg16 mi
6:00 PM66 °FPassing clouds.3 mph68%30.31 "Hg17 mi
5:00 PM67 °FScattered clouds.5 mph65%30.31 "Hg17 mi
4:00 PM68 °FScattered clouds.5 mph61%30.30 "Hg19 mi
3:00 PM68 °FPassing clouds.3 mph64%30.31 "Hg9 mi
2:00 PM67 °FScattered clouds.5 mph65%30.32 "Hg19 mi
1:00 PM67 °FPassing clouds.3 mph66%30.32 "Hg16 mi
12:00 PM65 °FPassing clouds.3 mph68%30.33 "Hg16 mi
11:00 AM63 °FPassing clouds.3 mph75%30.33 "Hg12 mi
10:00 AM60 °FPassing clouds.3 mph84%30.32 "Hg11 mi
9:00 AM58 °FScattered clouds.5 mph89%30.32 "Hg11 mi
8:00 AM56 °FPassing clouds.5 mph93%30.30 "Hg9 mi
7:00 AM56 °FPassing clouds.5 mph92%30.30 "Hg7 mi
6:00 AM57 °FClear.5 mph92%30.30 "Hg7 mi
5:00 AM58 °FFog.5 mph89%30.30 "Hg4 mi
4:00 AM59 °FOvercast.3 mph86%30.30 "Hg6 mi
3:00 AM59 °FOvercast.2 mph88%30.30 "Hg5 mi
Weather by CustomWeather, © 2014

See weather overviewHow to use our weather pages